Location: Brantford
(43.1330°N, 80.2670°W)
Time: 02:51:49
(UTC-05:00)

Altair - All Passes

Search period start: 17 November 2019 00:00
Search period end: 27 November 2019 00:00
Orbit: 1502 x 1682 km, 47.2° (Epoch: 16 November)

Date Brightness Start Highest point End Pass type
(mag) Time Alt. Az. Time Alt. Az. Time Alt. Az.
17 Nov - 01:41:47 10° S 01:48:27 23° SE 01:55:06 10° E visible
17 Nov - 03:42:47 10° SW 03:51:51 68° SSE 04:01:00 10° ENE visible
17 Nov - 05:47:28 10° W 05:56:39 72° N 06:06:03 10° ENE visible
17 Nov - 07:52:45 10° WNW 08:02:02 77° NNE 08:11:37 10° ESE daylight
17 Nov - 09:57:35 10° WNW 10:06:38 57° SW 10:16:01 10° SE daylight
17 Nov - 12:04:20 10° W 12:09:53 17° SW 12:15:33 10° SSW daylight
18 Nov - 01:17:11 10° S 01:23:26 21° SE 01:29:40 10° E visible
18 Nov - 03:17:43 10° SW 03:26:44 64° SE 03:35:49 10° ENE visible
18 Nov - 05:22:16 10° W 05:31:26 73° NNW 05:40:49 10° ENE visible
18 Nov - 07:27:34 10° WNW 07:36:50 76° NNE 07:46:22 10° E daylight
18 Nov - 09:32:25 10° WNW 09:41:31 60° SW 09:50:56 10° SE daylight
18 Nov - 11:38:46 10° W 11:44:51 19° SW 11:51:04 10° SSW daylight
19 Nov - 00:52:39 10° SSE 00:58:25 19° SE 01:04:09 10° E visible
19 Nov - 02:52:40 10° SW 03:01:38 60° SE 03:10:37 10° ENE visible
19 Nov - 04:57:03 10° W 05:06:15 75° NNW 05:15:36 10° ENE visible
19 Nov - 07:02:24 10° WNW 07:11:38 74° NNE 07:21:07 10° E daylight
19 Nov - 09:07:15 10° WNW 09:16:24 64° SW 09:25:51 10° SE daylight
19 Nov - 11:13:18 10° W 11:19:49 21° SW 11:26:30 10° S daylight
20 Nov - 00:28:14 10° SSE 00:33:26 16° SE 00:38:34 10° E visible
20 Nov - 02:27:38 10° SW 02:36:32 56° SE 02:45:26 10° ENE visible
20 Nov - 04:31:51 10° WSW 04:41:03 77° NNW 04:50:23 10° ENE visible
20 Nov - 06:37:12 10° WNW 06:46:25 72° N 06:55:52 10° E visible
20 Nov - 08:42:05 10° WNW 08:51:15 68° SSW 09:00:44 10° SE daylight
20 Nov - 10:47:52 10° W 10:54:46 23° SW 11:01:51 10° S daylight
21 Nov - 00:03:57 10° SSE 00:08:25 15° SE 00:12:51 10° E night (unlit)
21 Nov - 02:02:37 10° SW 02:11:26 53° SE 02:20:14 10° ENE visible
21 Nov - 04:06:39 10° WSW 04:15:52 79° NNW 04:25:10 10° ENE visible
21 Nov - 06:12:01 10° WNW 06:21:12 71° N 06:30:37 10° E visible
21 Nov - 08:16:55 10° WNW 08:26:07 72° SSW 08:35:36 10° SE daylight
21 Nov - 10:22:30 10° W 10:29:43 26° SW 10:37:09 10° S daylight
21 Nov - 23:39:54 10° SE 23:43:26 13° ESE 23:46:56 10° E night (unlit)
22 Nov - 01:37:37 10° SSW 01:46:21 49° SE 01:55:02 10° ENE visible
22 Nov - 03:41:27 10° WSW 03:50:41 81° NNW 03:59:58 10° ENE visible
22 Nov - 05:46:49 10° WNW 05:56:00 70° N 06:05:22 10° E visible
22 Nov - 07:51:46 10° WNW 08:00:59 76° SSW 08:10:28 10° SE daylight
22 Nov - 09:57:10 10° WNW 10:04:41 28° SW 10:12:23 10° S daylight
22 Nov - 23:16:21 10° SE 23:18:26 11° ESE 23:20:30 10° ESE night (unlit)
23 Nov - 01:12:39 10° SSW 01:21:16 46° SE 01:29:49 10° ENE visible
23 Nov - 03:16:16 10° WSW 03:25:30 84° NNW 03:34:47 10° ENE visible
23 Nov - 05:21:37 10° W 05:30:48 69° N 05:40:07 10° E visible
23 Nov - 07:26:36 10° WNW 07:35:50 79° SSW 07:45:19 10° ESE daylight
23 Nov - 09:31:52 10° WNW 09:39:38 31° SW 09:47:36 10° S daylight
24 Nov - 00:47:42 10° SSW 00:56:12 42° SE 01:04:36 10° ENE visible
24 Nov - 02:51:06 10° WSW 03:00:20 87° NNW 03:09:36 10° ENE visible
24 Nov - 04:56:24 10° W 05:05:35 69° N 05:14:52 10° E visible
24 Nov - 07:01:26 10° WNW 07:10:40 83° SSW 07:20:09 10° ESE daylight
24 Nov - 09:06:36 10° WNW 09:14:34 33° SW 09:22:45 10° SSE daylight
25 Nov - 00:22:47 10° SSW 00:31:08 39° SE 00:39:23 10° ENE visible
25 Nov - 02:25:55 10° WSW 02:35:11 90° E 02:44:25 10° ENE visible
25 Nov - 04:31:12 10° W 04:40:22 69° N 04:49:38 10° E visible
25 Nov - 06:36:17 10° WNW 06:45:31 86° SSW 06:54:58 10° ESE visible
25 Nov - 08:41:21 10° WNW 08:49:30 36° SW 08:57:52 10° SSE daylight
25 Nov - 23:57:53 10° SSW 00:06:05 36° SE 00:14:08 10° ENE night (unlit)
26 Nov - 02:00:45 10° WSW 02:10:01 87° SSE 02:19:14 10° ENE visible
26 Nov - 04:06:00 10° W 04:15:09 69° N 04:24:24 10° E visible
26 Nov - 06:11:07 10° WNW 06:20:21 90° SW 06:29:47 10° ESE visible
26 Nov - 08:16:07 10° WNW 08:24:26 39° SW 08:32:58 10° SSE daylight
26 Nov - 23:33:03 10° SSW 23:41:01 33° SE 23:48:53 10° ENE night (unlit)
